Station KWHH1 - 1617433 - Kawaihae, HI Image indicating link to RSS feed of recent meteorological observations for station KWHH1


Conditions at KWHH1 as of
(8:30 pm HAST on 04/22/2024)
0630 GMT on 04/23/2024:
     

Click on the graph icon in the table below to see a time series plot of the last five days of that observation.

5-day plot - Wind Direction Wind Direction (WDIR):SSE ( 150 deg true )
5-day plot - Wind Speed Wind Speed (WSPD): 6.0 kts
5-day plot - Wind Gust Wind Gust (GST): 8.0 kts
5-day plot - Atmospheric Pressure Atmospheric Pressure (PRES):30.02 in
5-day plot - Air Temperature Air Temperature (ATMP): 78.4 °F
5-day plot - Water Temperature Water Temperature (WTMP): 79.3 °F
5-day plot - Wind Speed at 10 Meters Wind Speed at 10 meters (WSPD10M): 5.8 kts
5-day plot - Wind Speed at 20 Meters Wind Speed at 20 meters (WSPD20M): 7.8 kts
5-day plot -  Wind Speed, Wind Gust and Atmospheric Pressure Combined plot of Wind Speed, Gust, and Air Pressure
NOS Water Level Observation Network Water Level
Previous observations
TIME
(HAST)
5-day plot - Wind Direction
WDIR
 
5-day plot - Wind Speed
WSPD
kts
5-day plot - Wind Gust
GST
kts
5-day plot - Wave Height
WVHT
ft
5-day plot - Dominant Wave Period
DPD
sec
5-day plot - Average Wave Period
APD
sec
5-day plot - Mean Wave Direction
MWD
 
5-day plot - Atmospheric Pressure
PRES
in
5-day plot - Pressure Tendency
PTDY
in
5-day plot - Air Temperature
ATMP
°F
5-day plot - Water Temperature
WTMP
°F
5-day plot - Dew Point
DEWP
°F
5-day plot - Salinity
SAL
psu
5-day plot - Visibility
VIS
nmi
5-day plot - Tide (above MLLW)
TIDE
ft
2024-04-22 08:24 pm E 2.9 4.1----30.01- 78.6 79.3----
2024-04-22 08:18 pm NW 4.1 8.0----30.01- 78.3 79.3----
2024-04-22 08:12 pmWNW 7.0 8.0----30.00- 78.1 79.5----
2024-04-22 08:06 pmWNW 5.1 6.0----30.00- 78.1 79.5----
2024-04-22 08:00 pm W 2.9 4.1----30.00+0.04 78.3 79.5----
2024-04-22 07:54 pm N 1.9 5.1----30.00- 78.4 79.3----
2024-04-22 07:48 pm NW 5.1 8.0----30.00- 78.4 79.3----
2024-04-22 07:42 pm NW 7.0 8.0----29.99- 78.4 79.5----
2024-04-22 07:36 pm W 6.0 8.0----29.99- 78.6 79.7----
2024-04-22 07:30 pm W 2.9 5.1----30.00- 79.2 79.5----
2024-04-22 07:24 pmWSW 5.1 7.0----30.00- 79.2 79.3----
2024-04-22 07:18 pmWSW 4.1 5.1----29.99- 79.5 79.3----
2024-04-22 07:12 pm W 4.1 7.0----29.99- 79.3 79.2----
2024-04-22 07:06 pm W 7.0 8.0----29.99- 79.7 79.2----
2024-04-22 07:00 pm W 7.0 8.9----29.99+0.03 79.9 79.3----
2024-04-22 06:54 pmWNW 6.0 8.9----29.99- 79.5 79.7----
2024-04-22 06:48 pmWNW 8.0 9.9----29.98- 79.9 79.7----
2024-04-22 06:42 pm NW 5.1 8.9----29.98- 81.0 79.7----
2024-04-22 06:36 pm W 6.0 8.9----29.98- 80.2 79.7----
2024-04-22 06:30 pmWNW 6.0 7.0----29.98- 80.2 79.9----
2024-04-22 06:24 pmWNW 4.1 5.1----29.98- 80.8 79.7----
2024-04-22 06:18 pm W 1.9 2.9----29.98- 82.0 79.9----
2024-04-22 06:12 pm W 1.9 4.1----29.98- 82.0 79.7----
2024-04-22 06:06 pm W 4.1 5.1----29.98- 81.7 79.7----
2024-04-22 06:00 pmWSW 5.1 7.0----29.98+0.01 81.3 79.7----
2024-04-22 05:54 pm SW 5.1 8.9----29.98- 81.5 79.5----
2024-04-22 05:48 pm SW 8.0 11.1----29.97- 81.0 79.7----
2024-04-22 05:42 pmWSW 8.9 11.1----29.97- 81.0 79.3----
2024-04-22 05:36 pm SW 9.9 12.0----29.97- 81.1 79.5----
2024-04-22 05:30 pm SW 8.9 9.9----29.96- 81.1 79.5----
2024-04-22 05:24 pm SW 8.9 9.9----29.96- 81.0 79.3----
2024-04-22 05:18 pm SW 7.0 8.0----29.96- 80.8 79.5----
2024-04-22 05:12 pmWSW 5.1 7.0----29.96- 81.1 79.2----
2024-04-22 05:06 pmWSW 6.0 8.0----29.96- 81.1 79.2----
2024-04-22 05:00 pmWSW 7.0 9.9----29.96-0.02 81.3 79.3----
2024-04-22 04:54 pm SW 7.0 8.0----29.96- 81.3 79.3----
2024-04-22 04:48 pmWSW 6.0 7.0----29.96- 81.3 79.2----
2024-04-22 04:42 pmWSW 6.0 7.0----29.96- 81.0 79.2----
2024-04-22 04:36 pmWSW 5.1 6.0----29.96- 81.3 79.2----
2024-04-22 04:30 pmWSW 6.0 7.0----29.96- 81.1 79.2----
2024-04-22 04:24 pm W 5.1 7.0----29.96- 81.1 79.2----
2024-04-22 04:18 pm W 7.0 8.9----29.96- 81.3 79.2----
2024-04-22 04:12 pm W 7.0 8.9----29.96- 81.1 79.2----
2024-04-22 04:06 pm W 7.0 8.9----29.96- 81.0 79.2----
2024-04-22 04:00 pm W 7.0 8.9----29.96-0.04 81.1 79.2----
2024-04-22 03:54 pm W 8.0 8.9----29.96- 81.3 79.2----
2024-04-22 03:48 pm W 7.0 8.9----29.96- 81.3 79.0----
2024-04-22 03:42 pm W 8.0 9.9----29.96- 81.1 79.0----
2024-04-22 03:36 pm W 7.0 8.9----29.96- 81.1 79.0----
2024-04-22 03:30 pm W 6.0 7.0----29.96- 81.0 79.0----
2024-04-22 03:24 pm W 6.0 8.0----29.96- 80.8 79.0----
2024-04-22 03:18 pm W 7.0 8.0----29.96-- 79.0----
2024-04-22 03:12 pm W 6.0 7.0----29.96-- 79.0----
2024-04-22 03:06 pm W 7.0 8.0----29.96-- 79.0----
2024-04-22 03:00 pm W 7.0 8.0----29.96-0.06 80.8 79.0----
2024-04-22 02:54 pm W 6.0 7.0----29.96- 80.8 79.0----
2024-04-22 02:48 pm W 6.0 7.0----29.96-- 79.0----
2024-04-22 02:42 pmWSW 5.1 8.0----29.96-- 79.0----
2024-04-22 02:36 pm W 6.0 7.0----29.97-- 79.0----
2024-04-22 02:30 pmWSW 6.0 8.0----29.97- 80.8 79.0----
2024-04-22 02:24 pmWSW 7.0 8.9----29.97- 80.8 78.8----
2024-04-22 02:18 pm--------- 80.6 78.8----
2024-04-22 02:12 pm--------- 80.4 78.8----
2024-04-22 02:06 pm--------- 80.4 79.0----
2024-04-22 02:00 pmWSW 6.0 8.0----29.98-0.06 80.4 79.0----
2024-04-22 01:54 pmWSW 7.0 8.0----29.98- 80.4 79.0----
2024-04-22 01:48 pmWSW 7.0 8.9----29.98- 80.6 78.8----
2024-04-22 01:42 pmWSW 7.0 8.0----29.98- 80.4 79.0----
2024-04-22 01:36 pmWSW 7.0 8.9----29.98- 80.2 78.8----
2024-04-22 01:30 pmWSW 8.0 11.1----29.99- 80.1 78.8----
2024-04-22 01:24 pmWSW 9.9 11.1----29.99- 80.1 78.6----
2024-04-22 01:18 pmWSW 9.9 11.1----29.99- 80.1 78.6----
2024-04-22 01:12 pmWSW 9.9 11.1----29.99- 79.9 78.6----
2024-04-22 01:06 pmWSW 8.9 11.1----29.99- 79.9 78.6----
2024-04-22 01:00 pmWSW 8.9 11.1----30.00-0.05 79.7 78.6----
2024-04-22 12:54 pmWSW 8.0 8.9----30.00- 79.5 78.6----
2024-04-22 12:48 pm W 7.0 8.9----30.00- 79.3 78.6----
2024-04-22 12:42 pm W 8.0 8.9----30.00- 79.3 78.8----
2024-04-22 12:36 pm W 7.0 8.0----30.01- 79.2 78.8----
2024-04-22 12:30 pm W 7.0 8.9----30.01- 79.0 78.8----
2024-04-22 12:24 pm W 8.9 9.9----30.01- 78.8 79.0----
2024-04-22 12:18 pm W 8.0 9.9----30.01- 78.6 79.3----
2024-04-22 12:12 pm W 8.9 9.9----30.01- 78.6 79.2----
2024-04-22 12:06 pm W 8.9 9.9----30.02- 78.4 79.2----
2024-04-22 12:00 pm W 9.9 11.1----30.02-0.04 78.4 79.2----
2024-04-22 11:54 am W 8.0 9.9----30.02- 78.6 79.0----
2024-04-22 11:48 am W 8.9 11.1----30.02- 78.4 79.0----
2024-04-22 11:42 am W 9.9 11.1----30.02- 78.4 78.8----
2024-04-22 11:36 am W 9.9 11.1----30.03- 78.6 78.8----
2024-04-22 11:30 am W 9.9 12.0----30.03- 78.3 78.8----
2024-04-22 11:24 am W 9.9 12.0----30.03- 78.3 78.6----
2024-04-22 11:18 am W 11.1 12.0----30.03- 78.3 78.6----
2024-04-22 11:12 am W 9.9 12.0----30.03- 78.1 78.6----
2024-04-22 11:06 am W 9.9 11.1----30.03- 78.1 78.6----
2024-04-22 11:00 am W 9.9 12.0----30.03-0.01 78.1 78.4----
2024-04-22 10:54 am W 8.9 9.9----30.04- 77.9 78.4----
2024-04-22 10:48 am W 8.9 9.9----30.04- 77.9 78.4----
2024-04-22 10:42 am W 8.9 9.9----30.04- 77.9 78.4----
2024-04-22 10:36 am W 8.9 8.9----30.04- 77.9 78.4----
2024-04-22 10:30 am W 8.0 8.9----30.04- 77.9 78.4----
2024-04-22 10:24 am W 8.0 8.9----30.04- 78.1 78.4----
2024-04-22 10:18 am W 8.0 8.9----30.05- 77.7 78.4----
2024-04-22 10:12 am W 6.0 8.0----30.05- 78.4 78.4----
2024-04-22 10:06 am W 7.0 8.9----30.05- 77.9 78.4----
2024-04-22 10:00 amWSW 7.0 8.0----30.05+0.01 77.7 78.4----
2024-04-22 09:54 amWSW 7.0 8.0----30.05- 77.5 78.4----
2024-04-22 09:48 amWSW 6.0 7.0----30.05- 77.5 78.4----
2024-04-22 09:42 amWSW 7.0 8.0----30.05- 77.4 78.4----
2024-04-22 09:36 amWSW 7.0 8.9----30.05- 77.4 78.4----
2024-04-22 09:30 amWSW 8.0 8.9----30.05- 77.0 78.4----
2024-04-22 09:24 am SW 5.1 6.0----30.05- 77.4 78.4----
2024-04-22 09:18 am SW 5.1 6.0----30.06- 77.2 78.4----
2024-04-22 09:12 am SW 5.1 7.0----30.06- 77.0 78.4----
2024-04-22 09:06 am SW 4.1 6.0----30.06- 77.2 78.4----
2024-04-22 09:00 am SW 5.1 6.0----30.06+0.05 76.8 78.4----
2024-04-22 08:54 amWSW 6.0 7.0----30.06- 76.6 78.4----
2024-04-22 08:48 amWSW 6.0 7.0----30.06- 77.0 78.3----
2024-04-22 08:42 am SW 5.1 6.0----30.05- 77.2 78.3----
2024-04-22 08:36 amSSW 4.1 7.0----30.05- 77.2 78.3----
2024-04-22 08:30 amSSW 4.1 6.0----30.05- 77.2 78.3----
2024-04-22 08:24 am SW 6.0 8.0----30.05- 77.0 78.3----
2024-04-22 08:18 am SW 4.1 6.0----30.05- 77.4 78.3----
2024-04-22 08:12 am W 5.1 6.0----30.05- 77.0 78.4----
2024-04-22 08:06 am W 6.0 8.0----30.05- 77.0 78.4----
2024-04-22 08:00 am W 6.0 8.0----30.05+0.04 76.8 78.4----
2024-04-22 07:54 am W 6.0 7.0----30.05- 76.8 78.3----
2024-04-22 07:48 am W 6.0 7.0----30.05- 76.5 78.3----
2024-04-22 07:42 amWNW 6.0 6.0----30.05- 76.3 78.3----
2024-04-22 07:36 am W 4.1 5.1----30.04- 76.3 78.4----
2024-04-22 07:30 am NW 1.0 4.1----30.04- 77.0 78.1----
2024-04-22 07:24 amNNW 1.9 4.1----30.04- 76.8 77.9----
2024-04-22 07:18 amNNW 1.9 4.1----30.04- 76.8 78.1----
2024-04-22 07:12 amNNW 1.9 2.9----30.03- 76.5 78.1----
2024-04-22 07:06 am NE 1.9 5.1----30.04- 76.8 78.3----
2024-04-22 07:00 am E 1.9 6.0----30.04+0.03 76.6 78.3----
2024-04-22 06:54 amSSE 5.1 7.0----30.04- 75.9 78.4----
2024-04-22 06:48 amSSE 6.0 8.9----30.03- 75.9 78.4----
2024-04-22 06:42 amSSW 7.0 11.1----30.03- 75.7 78.4----
2024-04-22 06:36 am S 8.0 12.0----30.03- 75.7 78.6----
2024-04-22 06:30 am SW 6.0 9.9----30.03- 76.5 78.6----
2024-04-22 06:24 am SW 5.1 13.0----30.02- 76.6 78.6----
2024-04-22 06:18 amWSW 12.0 17.1----30.02- 76.1 78.6----
2024-04-22 06:12 amWSW 11.1 12.0----30.02- 76.3 78.6----
2024-04-22 06:06 amWSW 11.1 15.0----30.01- 76.3 78.8----
2024-04-22 06:00 am W 11.1 13.0----30.01-0.02 76.5 78.8----
2024-04-22 05:54 am W 11.1 13.0----30.01- 76.3 78.8----
2024-04-22 05:48 am W 11.1 13.0----30.01- 76.3 78.8----
2024-04-22 05:42 am W 11.1 13.0----30.01- 76.1 78.8----
2024-04-22 05:36 am W 11.1 13.0----30.01- 76.3 78.8----
2024-04-22 05:30 amWSW 11.1 13.0----30.01- 76.5 78.8----
2024-04-22 05:24 amWSW 4.1 8.9----30.01- 76.5 78.8----
2024-04-22 05:18 am SW 6.0 11.1----30.01- 76.5 78.8----
2024-04-22 05:12 amSSW 6.0 8.9----30.01- 76.3 78.8----
2024-04-22 05:06 amSSW 7.0 8.9----30.01- 76.3 78.8----
2024-04-22 05:00 am SW 5.1 7.0----30.01-0.03 76.6 78.8----
2024-04-22 04:54 amWSW 7.0 8.9----30.01- 76.3 78.8----
2024-04-22 04:48 am W 6.0 7.0----30.01- 76.5 78.8----
2024-04-22 04:42 am W 5.1 7.0----30.01- 76.5 78.8----
2024-04-22 04:36 amWSW 6.0 8.0----30.01- 76.1 78.8----
2024-04-22 04:30 am W 4.1 5.1----30.01- 75.0 78.8----
2024-04-22 04:24 am NW 1.9 2.9----30.01- 74.1 78.8----
2024-04-22 04:18 amNNW 1.9 1.9----30.01- 73.8 78.8----
2024-04-22 04:12 amENE 1.9 2.9----30.01- 73.9 78.6----
2024-04-22 04:06 am SE 2.9 5.1----30.01- 74.3 78.6----
2024-04-22 04:00 am SE 4.1 5.1----30.01-0.05 73.9 78.8----
2024-04-22 03:54 am NE 1.9 2.9----30.01- 73.8 78.8----
2024-04-22 03:48 amENE 1.0 2.9----30.01- 74.3 78.8----
2024-04-22 03:42 am N 1.0 1.9----30.02- 74.7 78.4----
2024-04-22 03:36 am- 0.0 2.9----30.02- 74.8 78.4----
2024-04-22 03:30 am E 1.9 4.1----30.03- 74.7 78.4----
2024-04-22 03:24 am E 2.9 2.9----30.03- 74.8 78.6----
2024-04-22 03:18 am NE 1.0 1.9----30.02- 75.0 78.6----
2024-04-22 03:12 am- 0.0 1.9----30.03- 74.8 78.6----
2024-04-22 03:06 amNNE 1.9 4.1----30.03- 74.8 78.8----
2024-04-22 03:00 amNNW 4.1 5.1----30.03-0.04 75.2 79.0----
2024-04-22 02:54 am N 4.1 5.1----30.03- 74.8 79.0----
2024-04-22 02:48 am N 4.1 5.1----30.04- 74.7 79.0----
2024-04-22 02:42 amNNW 5.1 5.1----30.03- 74.7 79.2----
2024-04-22 02:36 am NE 4.1 6.0----30.03- 74.7 79.2----
2024-04-22 02:30 am N 1.9 5.1----30.04- 75.0 79.2----
2024-04-22 02:24 amWSW 1.0 4.1----30.04- 75.4 79.0----
2024-04-22 02:18 am SE 2.9 4.1----30.04- 76.1 79.0----
2024-04-22 02:12 amSSE 1.9 4.1----30.04- 75.4 79.0----
2024-04-22 02:06 amESE 2.9 4.1----30.04- 74.7 78.8----
2024-04-22 02:00 am NW 2.9 2.9----30.04-0.04 75.0 78.6----
2024-04-22 01:54 am NE 1.9 2.9----30.05- 73.8 78.6----
2024-04-22 01:48 am N 1.0 2.9----30.05- 74.5 78.8----
2024-04-22 01:42 amNNE 2.9 4.1----30.05- 74.5 79.0----
2024-04-22 01:36 amENE 1.9 5.1----30.05- 74.5 79.2----
2024-04-22 01:30 am SE 5.1 6.0----30.05- 74.8 79.3----
2024-04-22 01:24 am- 0.0 2.9----30.05- 75.7 79.3----
2024-04-22 01:18 am N 1.9 2.9----30.06- 75.6 79.2----
2024-04-22 01:12 am NE 1.0 1.9----30.06- 75.0 79.2----
2024-04-22 01:06 amNNE 1.0 1.9----30.06- 75.7 79.2----
2024-04-22 01:00 am N 1.0 2.9----30.06-0.01 75.0 79.5----
2024-04-22 12:54 am N 1.0 1.9----30.06- 75.4 79.5----
2024-04-22 12:48 am- 0.0 2.9----30.06- 75.9 79.5----
2024-04-22 12:42 am NE 1.0 1.9----30.06- 75.6 79.3----
2024-04-22 12:36 am- 0.0 1.9----30.07- 75.9 79.3----
2024-04-22 12:30 am SE 1.0 4.1----30.07- 76.5 79.3----
2024-04-22 12:24 am E 2.9 4.1----30.07- 75.7 79.5----
2024-04-22 12:18 am SE 2.9 4.1----30.07- 75.9 79.5----
2024-04-22 12:12 amSSW 1.9 4.1----30.07- 75.7 79.5----
2024-04-22 12:06 amESE 1.9 5.1----30.07- 76.3 79.5----
2024-04-22 12:00 am SW 4.1 6.0----30.07+0.02 77.0 79.5----
2024-04-21 11:54 pmWSW 6.0 7.0----30.07- 77.2 79.5----
2024-04-21 11:48 pmWSW 1.9 5.1----30.07- 76.6 79.5----
2024-04-21 11:42 pm N 2.9 5.1----30.07- 76.8 79.5----
2024-04-21 11:36 pm W 1.9 5.1----30.07- 77.2 79.5----
2024-04-21 11:30 pm NE 1.0 5.1----30.07- 77.2 79.5----
2024-04-21 11:24 pm W 1.9 4.1----30.07- 76.8 79.5----
2024-04-21 11:18 pm N 1.9 6.0----30.08- 76.8 79.5----
2024-04-21 11:12 pm W 4.1 6.0----30.08- 77.4 79.5----
2024-04-21 11:06 pm W 5.1 5.1----30.08- 77.5 79.5----
2024-04-21 11:00 pmWSW 2.9 6.0----30.08+0.05 77.5 79.5----
2024-04-21 10:54 pmWSW 5.1 6.0----30.08- 77.5 79.5----
2024-04-21 10:48 pm W 5.1 6.0----30.08- 77.5 79.5----
2024-04-21 10:42 pmWSW 4.1 6.0----30.08- 77.7 79.5----
2024-04-21 10:36 pm W 2.9 6.0----30.08- 78.1 79.5----
2024-04-21 10:30 pmWNW 2.9 4.1----30.08- 77.9 79.5----
2024-04-21 10:24 pm NW 2.9 4.1----30.08- 78.3 79.5----
2024-04-21 10:18 pm W 2.9 5.1----30.07- 78.1 79.5----
2024-04-21 10:12 pmWSW 2.9 5.1----30.07- 78.1 79.5----
2024-04-21 10:06 pmWSW 4.1 6.0----30.07- 78.3 79.7----
2024-04-21 10:00 pm W 5.1 6.0----30.07+0.06 78.1 79.7----
2024-04-21 09:54 pm NW 4.1 7.0----30.07- 78.3 79.7----
2024-04-21 09:48 pmWNW 5.1 6.0----30.07- 78.3 79.5----
2024-04-21 09:42 pmNNW 2.9 2.9----30.07- 78.4 79.5----
2024-04-21 09:36 pmNNW 1.9 1.9----30.06- 78.6 79.7----
2024-04-21 09:30 pm N 1.0 1.9----30.06- 79.0 79.7----
2024-04-21 09:24 pm N 1.9 1.9----30.06- 78.8 79.7----
2024-04-21 09:18 pm- 0.0 1.0----30.06- 79.0 79.7----
2024-04-21 09:12 pm E 1.0 2.9----30.06- 78.6 79.7----
2024-04-21 09:06 pm- 0.0 4.1----30.05- 78.8 79.7----
2024-04-21 09:00 pmESE 1.0 4.1----30.05+0.06 78.8 79.7----
2024-04-21 08:54 pmESE 4.1 6.0----30.05- 78.8 79.7----